Location: Cisewo
(53.3833°N, 14.9000°E)
Time: 12:10:20
(UTC+00:00)

Iridium 4 Rocket - Pass Details

Date: 18 April 2021
Orbit: 586 x 903 km, 86.9° (Epoch: 14 May)

Event Time Altitude Azimuth Distance (km) Brightness Sun altitude
Exits shadow 23:11:56 57° 261° (W) 874 3.6 -25.4°
Maximum altitude 23:12:15 58° 279° (W) 868 3.7 -25.4°
Drops below altitude 10° 23:17:30 10° 358° (N) 2,381 7.1 -25.3°
Sets 23:20:02 0° 3° (N) 3,366 8.2 -25.3°
